www.pogodaiklimat.ru
Время
(UTC), дата
15 19.10
18 19.10
21 19.10
00 20.10
03 20.10
06 20.10
09 20.10
12 20.10
15 20.10
18 20.10
21 20.10
00 21.10
03 21.10
06 21.10
09 21.10
12 21.10
15 21.10
18 21.10
21 21.10
00 22.10
03 22.10
06 22.10
09 22.10
12 22.10
15 22.10
18 22.10
21 22.10
00 23.10
03 23.10
06 23.10
09 23.10
12 23.10
15 23.10
18 23.10
21 23.10
00 24.10
03 24.10
06 24.10
09 24.10
12 24.10
15 24.10
18 24.10
21 24.10
00 25.10
03 25.10
06 25.10
09 25.10
12 25.10
15 25.10
18 25.10
21 25.10
00 26.10
03 26.10
06 26.10
09 26.10
Ветер
(напр.,м/с)
Видим. Явления Облачность Т
(С)
Тd
(С)
f
(%)
Тe
(С)
Тes
(С)
Комфортность P
(гПа)
Po
(гПа)
Тmin
(С)
Tmax
(С)
R
(мм)
R24
(мм)
S
(см)
ЮВ 1 10 км 9/0
[Ac trans Ci fib]
+8.4 +6.2 86 +8 +8 тепло 1013.9 1001.1 +12.3
штиль 0 10 км 9/8 1000 м
[Sc Ac trans]
+5.3 +3.7 89 +4 +4 тепло 1013.3 1000.5
Ю 1 50 м туман ?/? +3.6 +2.4 92 +2 +2 по сезону 1012.7 999.7
Ю 1 4000 м дымка {туман} 6/0
[Ci fib]
+2.6 +1.5 92 +1 +1 по сезону 1011.0 998.0
З 2 4000 м дымка 10/3 1000 м
[Sc Ac As]
+5.6 +4.3 91 +3 +3 по сезону 1010.7 997.9 +2.2
З 1 10 км слаб. дождь 10/0 600 м
[As op]
+5.5 +3.5 87 +4 +5 по сезону 1011.2 998.4
З 3 10 км {дождь} 3/3 1000 м
[Cu Sc Ci fib]
+6.6 +1.1 68 +4 +6 по сезону 1011.6 998.8
ЮЗ 1 10 км {дождь} 9/8 1000 м
[Sc Ac trans]
+8.4 -0.1 55 +8 +8 по сезону 1012.0 999.3
ЮЗ 2 10 км 9/0
[Ac trans Ci fib]
+2.5 -0.8 79 -1 -1 прохладно 1012.9 999.9 +9.1 4
ЮЗ 1 10 км 9/0
[Ac trans]
+1.3 -1.8 80 -0 -0 по сезону 1012.8 999.8
ЮЗ 1 10 км 9/0
[Ac trans Ci fib]
+2.1 -2.6 71 +1 +1 по сезону 1012.0 999.0
Ю 1 10 км 10/10 1000 м
[Sc]
+2.3 -1.8 74 +1 +1 по сезону 1011.3 998.3
Ю 2 10 км {ливн. снег} 6/4 1000 м
[Sc Ac trans]
+0.8 -1.6 84 -3 -3 прохладно 1011.3 998.2 +0.6 0.1
ЮЗ 3 10 км {ливн. дождь} 9/8 600 м
[Sc Ac trans]
+3.5 -1.3 71 -0 0 по сезону 1011.1 998.1 +0.1
З 4 4000 м слаб. крупа 10/10 600 м
[Cb cap]
+3.8 -0.7 72 -0 -0 по сезону 1010.4 997.5
З 2 10 км в посл. час ливневой снег 9/9 1000 м
[Sc]
+3.0 -1.7 71 0 0 прохладно 1010.7 997.8
З 3 10 км 4/0
[Ac trans]
+1.4 -3.5 70 -3 -3 прохладно 1011.4 998.4 +4.8 0.7
З 3 10 км в посл. час ливневой снег 9/9 1000 м
[Sc]
-0.3 -3.5 79 -5 -5 прохладно 1011.9 998.8
З 4 10 км 10/10 1000 м
[Sc]
-0.4 -5.1 71 -6 -6 холодно 1012.0 998.9
З 4 10 км 9/9 1000 м
[Sc]
-0.2 -4.1 75 -5 -5 прохладно 1012.7 999.5
З 3 10 км в посл. час ливневой снег 10/10 1000 м
[Sc]
-0.6 -3.8 79 -5 -5 прохладно 1014.1 1000.9 -0.9 0.2 <0.5
З 4 10 км {ливн. снег} 9/8 1000 м
[Sc diur, vesp Ac trans]
+0.5 -4.0 72 -5 -4 холодно 1015.6 1002.5 -1.0
З 3 10 км в посл. час ливневой снег 10/10 600 м
[Cb cap]
+1.5 -4.6 64 -2 -2 прохладно 1016.2 1003.1
З 3 10 км слаб. ливневой снег 10/10 600 м
[Cb cap]
+1.4 -2.7 74 -3 -3 холодно 1016.7 1003.6
З 5 10 км слаб. ливневой снег 10/10 600 м
[Cb cap]
+0.4 -3.5 75 -5 -5 холодно 1018.1 1004.9 +1.7 0.6
З 4 10 км {ливн. снег} 9/4 1000 м
[Sc Ac trans]
-0.4 -4.4 74 -6 -6 холодно 1018.3 1005.1
З 4 10 км слаб. ливневой снег 10/10 600 м
[Cb cap]
-0.1 -4.3 73 -5 -5 прохладно 1018.7 1005.5
СВ 1 10 км слаб. ливневой снег 10/10 600 м
[Cb cap]
-1.7 -4.4 82 -4 -4 по сезону 1019.8 1006.5
СЗ 1 10 км {ливн. снег} 6/4 1000 м
[Sc Ac trans]
-3.8 -5.8 86 -6 -6 холодно 1020.9 1007.5 -3.8 0.2 <0.5
З 2 10 км {ливн. снег} 3/3 1000 м
[Cu hum]
-0.1 -5.3 68 -3 -2 прохладно 1021.4 1008.2 -4.0
ЮЗ 1 10 км 8/8 1000 м
[Cu Sc]
+1.0 -5.8 60 -0 0 по сезону 1021.0 1007.8
Ю 2 10 км 9/3 1000 м
[Sc Ac trans Ci fib]
+2.4 -7.3 49 0 0 по сезону 1019.7 1006.6
ЮВ 2 10 км 9/3 1000 м
[Sc Ac trans]
+1.5 -6.0 57 -1 -1 по сезону 1018.0 1004.9 +3.0
ЮВ 3 4000 м слаб. ливневой снег 10/10 600 м
[Cb cap]
+0.3 -1.6 87 -4 -4 прохладно 1016.2 1003.1
Ю 4 10 км в посл. час ливневой снег 10/10 1000 м
[Sc]
+1.2 -1.3 83 -4 -4 прохладно 1013.0 999.9
Ю 4
{10}
4000 м слаб. ливневой дождь со снегом 10/10 600 м
[Cb cap]
+0.6 -0.8 90 -5 -5 прохладно 1009.8 996.8
Ю 3 10 км слаб. ливневой дождь 10/10 600 м
[Cb cap]
+1.4 0.0 90 -3 -3 по сезону 1007.2 994.2 +0.2 7 <0.5
Ю 3 10 км слаб. дождь 10/10 600 м
[Ns]
+2.8 +1.4 90 -1 -1 по сезону 1005.5 992.6
Ю 2 10 км слаб. ливневой дождь 10/10 600 м
[Cb cap]
+4.7 +3.3 91 +2 +2 по сезону 1003.8 991.0
Ю 3 4000 м дымка {ливн. дождь, дождь} 9/9 1000 м
[Sc]
+7.3 +5.8 90 +4 +4 по сезону 1003.8 991.2
Ю 1 4000 м дымка 9/9 1000 м
[Sc]
+8.8 +6.9 88 +8 +8 тепло 1005.3 992.7 +8.8 4
ЮЗ 1 4000 м дымка 10/10 1000 м
[Sc]
+9.0 +6.6 85 +8 +8 тепло 1006.7 994.1
ЮЗ 2 4000 м дымка 9/9 1000 м
[Sc]
+8.8 +6.1 83 +7 +7 тепло 1007.8 995.2
ЮЗ 2 4000 м дымка 10/10 1000 м
[Sc]
+8.2 +5.4 82 +6 +6 тепло 1008.6 995.9
ЮЗ 2 4000 м дымка 10/10 1000 м
[Sc]
+7.9 +4.9 81 +6 +6 тепло 1008.9 996.2 +7.8
З 3 10 км 9/6 1000 м
[Sc Ac trans Ci fib]
+8.9 +5.3 78 +7 +7 тепло 1009.6 996.9
ЮЗ 2 10 км 9/8 1000 м
[Cu Sc Ac trans]
+10.8 +5.3 69 +10 +10 тепло 1008.5 996.0
ЮВ 1 10 км 10/10 1000 м
[Sc]
+10.3 +5.1 70 +10 +10 тепло 1007.6 995.1
Ю 1 10 км 10/10 1000 м
[Sc]
+7.0 +4.1 82 +6 +6 тепло 1006.7 994.0 +11.8
штиль 0 10 км 10/8 1000 м
[Sc Ac As]
+5.8 +4.1 89 +5 +5 тепло 1004.8 992.1
СЗ 3 10 км слаб. дождь 10/0
[As op]
+5.9 +4.3 89 +3 +3 тепло 1004.2 991.5
СЗ 4
{10}
10 км слаб. дождь 10/10 600 м
[Ns]
+1.3 -0.6 87 -4 -4 по сезону 1005.9 992.9
СЗ 3
{11}
10 км {дождь} 10/10 1000 м
[Sc]
+1.2 -2.6 76 -3 -3 по сезону 1007.6 994.6 +1.2 3
СЗ 5
{12}
10 км {дождь} 10/10 1000 м
[Sc]
+1.0 -4.2 68 -4 -4 прохладно 1009.6 996.6 +0.9
СЗ 6-10
{12}
10 км 9/9 600 м
[Sc diur, vesp]
+1.9 -4.0 65 -4 -4 прохладно 1010.7 997.7
Местоположение метеостанции Уфа (Башкирия, Россия): широта 54.71 долгота 55.83 высота над уровнем моря 104 м.
В архиве по умолчанию представлена погода в Уфе за последнюю неделю. Архивные данные за месяц целиком и за предыдущие месяцы, начиная с января 2011 года, Вы можете получить, выбрав интересующий диапазон дат из раскрывающегося списка и нажав кнопку "Найти!".
*Определитесь, кто Вы:
Внимание! Время в таблицах - всемирное. Для получения местного времени необходимо прибавить поправку, которая равна 5 ч.
Смотрите также архив погоды в соседних городах и на ближайших метеорологических станциях:
Партнеры нашего сайта:      
Пояснения к столбцам:
  • Ветер - указаны скорость ветра в м/с - средняя за 10 мин, порывы в срок и между сроками (в фигурных скобках) и направление, откуда дует ветер: С - северный,
  • СВ - северо-восточный, В - восточный, ЮВ - юго-восточный, Ю - южный, ЮЗ - юго-западный, З - западный, СЗ - северо-западный.
  • Видимость - горизонтальная дальность видимости в метрах или километрах. При видимости от 1 до 10 км при отсутствии осадков обычно наблюдается дымка, при ухудшении видимости до 1 км и менее - туман. В сухую погоду видимость может ухудшаться дымом, пылью или мглою.
  • Явления - указаны атмосферные явления, наблюдавшиеся в срок или в последний час перед сроком; фигурными скобками обозначены явления, наблюдавшиеся между сроками (за 1-3 часа до срока); квадратными скобками обозначены град или гололедные отложения с указанием их диаметра в мм.
  • Облачность - указаны через наклонную черту общая и нижняя облачность в баллах и высота нижней границы облаков в метрах; квадратными скобками обозначены формы облаков: Ci - перистые, Cs - перисто-слоистые, Cc - перисто-кучевые, Ac - высококучевые, As - высокослоистые, Sc - слоисто-кучевые, Ns - слоисто-дождевые, Cu - кучевые, Cb - кучево-дождевые. Подробнее классификацию облаков см. в Атласе облаков (PDF).
  • T - Температура воздуха - температура, измеренная на высоте 2 м над землей.
  • Td - Температура точки росы - температура, при понижении до которой содержащийся в воздухе водяной пар достигнет насыщения.
  • f - Относительная влажность воздуха - влажноcть воздуха, измеренная на высоте 2 м над землей.
  • Te - Эффективная температура - температура, которую ощущает одетый по сезону человек в тени. Характеристика душности погоды. При расчете учитывается влияние влажности воздуха и скорости ветра на теплоощущения человека.
  • Tes - Эффективная температура на солнце - температура, которую ощущает человек, с поправкой на солнечный нагрев. Характеристика знойности погоды. Зависит от высоты солнца над горизонтом, облачности и скорости ветра. Ночью, в пасмурную погоду, а также при ветре 12 м/с и более поправка равна нулю.
  • P - Атмосферное давление - приведенное к уровню моря атмосферное давление.
  • Po - Атмосферное давление - измеренное на уровне метеостанции атмосферное давление.
  • Tmin - Минимальная температура - минимум температуры воздуха на высоте 2 м над землей.
  • Tmax - Максимальная температура - максимум температуры воздуха на высоте 2 м над землей.
  • R - Количество осадков - Количество выпавших осадков за период времени, мм. При наведении курсора мыши на число - период времени, за который выпало указанное количество осадков.
  • R24 - Количество осадков - Количество выпавших осадков за 24 часа, мм.
  • S - Снежный покров - Высота снежного покрова, см. При наведении курсора мыши на число - состояние снежного покрова и степень покрытия местности в баллах.